Location: Cranford
(40.6578°N, 74.3024°W)
Time: 14:45:19
(UTC+00:00)

STARLINK-5164 - Pass Details

Date: 08 December 2022
Orbit: 544 x 546 km, 53.2° (Epoch: 04 February)

Event Time Altitude Azimuth Distance (km) Brightness Sun altitude
Rises 21:52:57 0° 236° (SW) 2,740 ? -4.7°
Reaches altitude 10° 21:55:12 10° 238° (WSW) 1,851 ? -5.1°
Maximum altitude 21:59:24 70° 322° (NW) 606 ? -5.8°
Drops below altitude 10° 22:03:39 10° 47° (NE) 1,873 ? -6.5°
Enters shadow 22:04:15 - 48° (NE) 2,108 ? -6.6°
